| time (UTC) | temp C | wind direction | speed KPH | gust KPH | rain 1hr cm | rain 24hr cm | rain mn cm | humidity % | barometer mb |
| 20260505034513 | 15 | 131 | 0.0 | 1.6 | 0.00 | 0.00 | 0.00 | 74 | 1011.3 |
| 20260505033014 | 15 | 176 | 1.6 | 8.0 | 0.00 | 0.00 | 0.00 | 73 | 1011.3 |
| 20260505031528 | 16 | 107 | 0.0 | 12.9 | 0.00 | 0.00 | 0.00 | 71 | 1011.4 |
| 20260505030022 | 16 | 146 | 0.0 | 4.8 | 0.00 | 0.00 | 0.00 | 70 | 1011.4 |
| 20260505024525 | 16 | 148 | 0.0 | 3.2 | 0.00 | 0.00 | 0.00 | 69 | 1011.3 |
| 20260505023010 | 16 | 89 | 0.0 | 6.4 | 0.00 | 0.00 | 0.00 | 70 | 1011.4 |
| 20260505021518 | 15 | 116 | 0.0 | 1.6 | 0.00 | 0.00 | 0.00 | 69 | 1011.4 |
| 20260505020020 | 16 | 114 | 0.0 | 4.8 | 0.00 | 0.00 | 0.00 | 68 | 1011.3 |
| 20260505014524 | 16 | 22 | 0.0 | 4.8 | 0.00 | 0.00 | 0.00 | 68 | 1011.3 |
| 20260505013025 | 16 | 128 | 0.0 | 3.2 | 0.00 | 0.00 | 0.00 | 66 | 1011.1 |
| 20260505011528 | 16 | 74 | 0.0 | 4.8 | 0.00 | 0.00 | 0.00 | 65 | 1010.9 |
| 20260505010020 | 16 | 136 | 0.0 | 3.2 | 0.00 | 0.00 | 0.00 | 63 | 1010.6 |
| 20260505004522 | 17 | 105 | 0.0 | 6.4 | 0.00 | 0.00 | 0.00 | 61 | 1010.7 |
| 20260505003004 | 17 | 133 | 0.0 | 9.7 | 0.00 | 0.00 | 0.00 | 60 | 1010.6 |
| 20260505001508 | 17 | 183 | 1.6 | 6.4 | 0.00 | 0.00 | 0.00 | 59 | 1010.5 |
| 20260505000015 | 17 | 104 | 0.0 | 4.8 | 0.00 | 0.00 | 0.00 | 58 | 1010.4 |
| 20260504234518 | 18 | 155 | 0.0 | 4.8 | 0.00 | 0.00 | 0.00 | 57 | 1010.6 |
| 20260504233026 | 18 | 112 | 0.0 | 9.7 | 0.00 | 0.00 | 0.00 | 53 | 1010.4 |
| 20260504231506 | 19 | 118 | 0.0 | 6.4 | 0.00 | 0.00 | 0.00 | 51 | 1010.4 |
| 20260504230028 | 20 | 205 | 1.6 | 3.2 | 0.00 | 0.00 | 0.00 | 49 | 1010.4 |
| 20260504224532 | 20 | 83 | 0.0 | 8.0 | 0.00 | 0.00 | 0.00 | 47 | 1010.4 |
| 20260504223023 | 20 | 174 | 3.2 | 12.9 | 0.00 | 0.00 | 0.00 | 46 | 1010.4 |
| 20260504221504 | 20 | 100 | 3.2 | 11.3 | 0.00 | 0.00 | 0.00 | 43 | 1010.3 |
| 20260504220008 | 21 | 156 | 3.2 | 16.1 | 0.00 | 0.00 | 0.00 | 43 | 1010.4 |
| 20260504214528 | 21 | 210 | 1.6 | 12.9 | 0.00 | 0.00 | 0.00 | 42 | 1010.4 |
| 20260504213023 | 21 | 145 | 3.2 | 11.3 | 0.00 | 0.00 | 0.00 | 41 | 1010.4 |
| 20260504211523 | 21 | 137 | 1.6 | 11.3 | 0.00 | 0.00 | 0.00 | 40 | 1010.5 |
| 20260504210027 | 21 | 91 | 3.2 | 9.7 | 0.00 | 0.00 | 0.00 | 40 | 1010.7 |
| 20260504204511 | 21 | 164 | 6.4 | 12.9 | 0.00 | 0.00 | 0.00 | 41 | 1010.9 |
| 20260504203017 | 21 | 211 | 1.6 | 8.0 | 0.00 | 0.00 | 0.00 | 41 | 1010.9 |
| 20260504201522 | 21 | 172 | 3.2 | 14.5 | 0.00 | 0.00 | 0.00 | 39 | 1011.1 |
| 20260504200024 | 21 | 226 | 3.2 | 9.7 | 0.00 | 0.00 | 0.00 | 39 | 1011.4 |
| 20260504194525 | 21 | 123 | 1.6 | 11.3 | 0.00 | 0.00 | 0.00 | 42 | 1011.6 |
| 20260504193011 | 21 | 163 | 4.8 | 20.9 | 0.00 | 0.00 | 0.00 | 40 | 1011.9 |
| 20260504191520 | 22 | 148 | 4.8 | 12.9 | 0.00 | 0.00 | 0.00 | 41 | 1012.1 |
| 20260504190021 | 22 | 154 | 3.2 | 14.5 | 0.00 | 0.00 | 0.00 | 38 | 1012.3 |
| 20260504184534 | 22 | 244 | 3.2 | 9.7 | 0.00 | 0.00 | 0.00 | 40 | 1012.5 |
| 20260504183033 | 22 | 172 | 4.8 | 12.9 | 0.00 | 0.00 | 0.00 | 39 | 1012.4 |
| 20260504181513 | 21 | 158 | 3.2 | 12.9 | 0.00 | 0.00 | 0.00 | 40 | 1012.5 |
| 20260504180020 | 22 | 242 | 4.8 | 11.3 | 0.00 | 0.00 | 0.00 | 39 | 1012.8 |
| 20260504174522 | 21 | 174 | 1.6 | 11.3 | 0.00 | 0.00 | 0.00 | 44 | 1013.0 |
| 20260504173025 | 22 | 195 | 1.6 | 8.0 | 0.00 | 0.00 | 0.00 | 42 | 1013.1 |
| 20260504171512 | 22 | 124 | 3.2 | 6.4 | 0.00 | 0.00 | 0.00 | 43 | 1013.2 |
| 20260504081535 | 1 | 155 | 0.0 | 0.0 | 0.00 | 0.00 | 0.00 | 15 | 1016.2 |
| 20260504050020 | 2 | 155 | 0.0 | 0.0 | 0.00 | 0.00 | 0.00 | 66 | 1016.5 |
| 20260504044524 | 2 | 155 | 0.0 | 0.0 | 0.00 | 0.00 | 0.00 | 74 | 1016.4 |
| 20260504043009 | 2 | 155 | 0.0 | 0.0 | 0.00 | 0.00 | 0.00 | 75 | 1016.2 |
| 20260504041509 | 3 | 155 | 0.0 | 0.0 | 0.00 | 0.00 | 0.00 | 79 | 1016.1 |
| 20260504040016 | 3 | 155 | 0.0 | 0.0 | 0.00 | 0.00 | 0.00 | 81 | 1016.1 |